QPF
0.02 0.03 0.06 0.14 0.21 0.19 0.08 0.02 0.01 0.00 0.00 0.00 0.00 0.00 0.00 0.00 0.00 0.00 0.00 0.00 0.00 0.00 0.00 0.00 0.00 0.00 0.00 0.00 0.00 0.00 0.00 0.00 0.00 0.00 0.00 0.00 0.00 0.00 0.00 0.00 0.00 0.00 0.00
0.01 0.04 0.09 0.06 0.05 0.03 0.01 0.01 0.03 0.03 0.01 0.00 0.00 0.00 0.01 0.00 0.00 0.00 0.00 0.00 0.00 0.00 0.00 0.00 0.00 0.00 0.00 0.00 0.00 0.00 0.00 0.00 0.00 0.00 0.00 0.00 0.00 0.00 0.00 0.00 0.00 0.00 0.00
0.02 0.03 0.10 0.09 0.05 0.04 0.01 0.01 0.03 0.05 0.05 0.05 0.01 0.00 0.00 0.00 0.00 0.00 0.00 0.00 0.00 0.00 0.00 0.00 0.00 0.00 0.00 0.00 0.00 0.00 0.00 0.00 0.00 0.00 0.00 0.00 0.00 0.00 0.00 0.00 0.00 0.00 0.00
0.03 0.05 0.10 0.11 0.08 0.05 0.05 0.06 0.06 0.02 0.02 0.02 0.00 0.00 0.00 0.00 0.00 0.00 0.00 0.00 0.00 0.00 0.00 0.00 0.00 0.00 0.00 0.00 0.00 0.00 0.00 0.00 0.00 0.00 0.00 0.00 0.00 0.00 0.00 0.00 0.00 0.00 0.00
0.02 0.07 0.10 0.09 0.07 0.11 0.13 0.12 0.09 0.05 0.03 0.00 0.00 0.00 0.00 0.00 0.00 0.00 0.00 0.00 0.00 0.00 0.00 0.00 0.00 0.00 0.00 0.00 0.00 0.00 0.00 0.00 0.00 0.00 0.00 0.00 0.00 0.00 0.00 0.00 0.00 0.00 0.00
0.07 0.08 0.14 0.16 0.12 0.10 0.08 0.04 0.01 0.00 0.00 0.00 0.00 0.00 0.00 0.00 0.00 0.00 0.00 0.00 0.00 0.00 0.00 0.00 0.00 0.00 0.00 0.00 0.00 0.00 0.00 0.00 0.00 0.00 0.00 0.00 0.00 0.00 0.00 0.00 0.00 0.00 0.00
0.09 0.09 0.10 0.06 0.05 0.04 0.02 0.01 0.00 0.00 0.00 0.00 0.00 0.00 0.00 0.00 0.00 0.00 0.00 0.00 0.00 0.00 0.00 0.00 0.00 0.00 0.00 0.00 0.00 0.00 0.00 0.00 0.00 0.00 0.00 0.00 0.00 0.00 0.00 0.00 0.00 0.00 0.00
0.01 0.02 0.02 0.01 0.01 0.01 0.01 0.01 0.01 0.00 0.00 0.00 0.00 0.00 0.00 0.00 0.00 0.00 0.00 0.00 0.00 0.00 0.00 0.00 0.00 0.00 0.00 0.00 0.00 0.00 0.00 0.00 0.00 0.00 0.00 0.00 0.00 0.00 0.01 0.01 0.01 0.00 0.00
0.00 0.00 0.00 0.00 0.00 0.00 0.01 0.00 0.00 0.00 0.00 0.00 0.00 0.00 0.00 0.00 0.00 0.00 0.00 0.00 0.00 0.00 0.00 0.00 0.00 0.00 0.00 0.00 0.00 0.00 0.00 0.00 0.00 0.00 0.00 0.00 0.00 0.00 0.00 0.00 0.00 0.00 0.00
0.00 0.00 0.00 0.00 0.00 0.00 0.01 0.00 0.00 0.00 0.00 0.00 0.00 0.00 0.00 0.00 0.00 0.00 0.00 0.00 0.00 0.00 0.00 0.00 0.00 0.00 0.00 0.00 0.00 0.00 0.00 0.00 0.00 0.00 0.00 0.00 0.00 0.00 0.00 0.00 0.00 0.00 0.00
0.00 0.00 0.00 0.00 0.00 0.00 0.00 0.00 0.00 0.00 0.00 0.00 0.00 0.00 0.00 0.00 0.00 0.00 0.00 0.00 0.00 0.00 0.00 0.00 0.00 0.00 0.00 0.00 0.00 0.00 0.00 0.00 0.00 0.00 0.00 0.00 0.00 0.00 0.00 0.00 0.02 0.02 0.00
0.00 0.00 0.00 0.00 0.00 0.00 0.00 0.00 0.00 0.00 0.00 0.00 0.00 0.00 0.00 0.00 0.00 0.00 0.00 0.00 0.00 0.00 0.00 0.00 0.00 0.00 0.00 0.00 0.00 0.00 0.00 0.00 0.00 0.00 0.00 0.00 0.00 0.00 0.00 0.00 0.00 0.01 0.01
0.00 0.00 0.00 0.00 0.00 0.00 0.00 0.00 0.00 0.00 0.00 0.00 0.00 0.00 0.00 0.00 0.00 0.00 0.00 0.00 0.00 0.00 0.00 0.00 0.00 0.00 0.00 0.00 0.00 0.00 0.00 0.00 0.00 0.00 0.00 0.00 0.00 0.00 0.00 0.00 0.00 0.02 0.02
0.00 0.00 0.00 0.00 0.00 0.00 0.00 0.00 0.00 0.00 0.00 0.00 0.00 0.00 0.00 0.00 0.00 0.00 0.00 0.00 0.00 0.00 0.00 0.00 0.00 0.00 0.00 0.00 0.00 0.00 0.00 0.00 0.00 0.00 0.00 0.00 0.00 0.00 0.00 0.00 0.00 0.00 0.02
0.00 0.00 0.00 0.00 0.00 0.00 0.00 0.00 0.00 0.00 0.00 0.00 0.00 0.00 0.00 0.00 0.00 0.00 0.00 0.00 0.00 0.00 0.00 0.00 0.00 0.00 0.00 0.00 0.00 0.00 0.00 0.00 0.00 0.00 0.00 0.00 0.00 0.00 0.00 0.00 0.00 0.00 0.00
0.00 0.00 0.00 0.00 0.00 0.00 0.00 0.00 0.00 0.00 0.00 0.00 0.00 0.00 0.00 0.00 0.00 0.00 0.00 0.00 0.00 0.00 0.00 0.00 0.00 0.00 0.00 0.00 0.00 0.00 0.00 0.00 0.00 0.00 0.00 0.00 0.00 0.00 0.00 0.00 0.00 0.00 0.00
0.00 0.00 0.00 0.00 0.00 0.00 0.00 0.00 0.00 0.00 0.00 0.00 0.00 0.00 0.00 0.00 0.00 0.00 0.00 0.00 0.00 0.00 0.00 0.00 0.00 0.00 0.00 0.00 0.00 0.00 0.00 0.00 0.00 0.00 0.00 0.00 0.00 0.00 0.00 0.00 0.00 0.00 0.00
0.00 0.00 0.00 0.00 0.00 0.00 0.00 0.00 0.00 0.00 0.00 0.00 0.00 0.00 0.00 0.00 0.00 0.00 0.00 0.00 0.00 0.00 0.00 0.00 0.00 0.00 0.00 0.00 0.00 0.00 0.00 0.00 0.00 0.00 0.00 0.00 0.00 0.00 0.00 0.00 0.00 0.00 0.00
0.00 0.00 0.00 0.00 0.00 0.00 0.00 0.00 0.00 0.00 0.00 0.00 0.00 0.00 0.00 0.00 0.00 0.00 0.00 0.00 0.00 0.00 0.00 0.00 0.00 0.00 0.00 0.00 0.00 0.00 0.00 0.00 0.00 0.00 0.00 0.00 0.00 0.00 0.00 0.00 0.00 0.00 0.00
0.05 0.01 0.00 0.00 0.00 0.00 0.00 0.00 0.00 0.00 0.00 0.00 0.00 0.00 0.00 0.00 0.00 0.00 0.00 0.00 0.00 0.00 0.00 0.00 0.00 0.00 0.02 0.00 0.00 0.00 0.00 0.00 0.00 0.00 0.00 0.00 0.00 0.00 0.00 0.00 0.00 0.00 0.00
0.00 0.00 0.00 0.00 0.00 0.00 0.00 0.00 0.00 0.00 0.00 0.02 0.01 0.00 0.00 0.00 0.00 0.01 0.02 0.00 0.00 0.00 0.00 0.00 0.00 0.00 0.00 0.00 0.00 0.00 0.00 0.00 0.00 0.00 0.00 0.00 0.00 0.00 0.00 0.00 0.00 0.00 0.00
0.00 0.00 0.00 0.00 0.00 0.01 0.00 0.00 0.01 0.03 0.06 0.02 0.01 0.00 0.01 0.00 0.00 0.00 0.00 0.00 0.00 0.00 0.00 0.00 0.00 0.00 0.00 0.00 0.00 0.00 0.00 0.00 0.00 0.00 0.00 0.00 0.00 0.00 0.00 0.00 0.00 0.00 0.00
0.00 0.00 0.00 0.00 0.00 0.01 0.01 0.01 0.01 0.04 0.12 0.16 0.03 0.00 0.01 0.00 0.00 0.00 0.00 0.00 0.00 0.00 0.00 0.00 0.00 0.00 0.00 0.00 0.00 0.00 0.00 0.00 0.00 0.00 0.00 0.00 0.00 0.00 0.00 0.00 0.00 0.00 0.00
0.00 0.00 0.00 0.00 0.00 0.00 0.00 0.00 0.01 0.02 0.00 0.00 0.00 0.00 0.00 0.00 0.00 0.00 0.00 0.00 0.00 0.01 0.03 0.05 0.08 0.00 0.00 0.00 0.00 0.01 0.00 0.00 0.00 0.00 0.00 0.00 0.00 0.00 0.00 0.00 0.00 0.00 0.00
0.00 0.00 0.00 0.00 0.00 0.00 0.00 0.00 0.02 0.02 0.03 0.02 0.00 0.00 0.00 0.00 0.00 0.00 0.00 0.00 0.01 0.00 0.00 0.01 0.01 0.00 0.00 0.00 0.00 0.00 0.00 0.00 0.00 0.00 0.00 0.00 0.00 0.00 0.00 0.00 0.02 0.01 0.00
0.00 0.00 0.00 0.00 0.00 0.00 0.00 0.00 0.00 0.00 0.00 0.00 0.00 0.00 0.00 0.00 0.00 0.00 0.00 0.00 0.01 0.00 0.00 0.00 0.00 0.00 0.00 0.00 0.00 0.00 0.00 0.00 0.00 0.00 0.00 0.00 0.00 0.02 0.04 0.05 0.02 0.00 0.00
MSLP
1010.66 1011.11 1011.88 1013.75 1013.59 1013.68 1013.53 1014.41 1015.16 1015.83 1016.20 1016.78 1016.98 1017.47 1017.72 1017.53 1017.41 1017.72 1017.82 1017.93 1018.01 1017.92 1017.83 1018.14 1018.07 1018.04 1017.80 1017.66 1017.90 1017.92 1017.75 1017.76 1017.55 1018.08 1018.34 1018.84 1018.98 1019.03 1018.78 1018.48 1018.79 1018.32 1018.21
1010.38 1011.16 1012.39 1012.60 1012.34 1013.28 1014.38 1014.71 1015.51 1015.81 1016.31 1016.56 1016.99 1017.34 1017.43 1017.52 1017.47 1017.49 1017.89 1017.99 1018.07 1018.03 1018.21 1018.27 1018.32 1018.28 1018.45 1018.39 1018.25 1018.32 1018.15 1018.37 1018.04 1018.00 1018.18 1018.50 1018.58 1018.57 1018.63 1018.46 1018.50 1017.47 1017.77
1010.37 1010.92 1011.84 1012.37 1012.73 1013.43 1014.35 1014.38 1014.78 1015.38 1015.96 1016.41 1016.95 1017.18 1017.28 1017.21 1017.16 1017.54 1017.65 1017.72 1017.91 1017.94 1018.13 1018.25 1018.26 1018.46 1018.43 1018.03 1018.32 1018.09 1018.11 1017.91 1018.28 1018.18 1017.78 1017.73 1017.89 1017.85 1017.92 1017.94 1017.86 1017.54 1017.47
1010.31 1010.97 1011.62 1012.41 1012.92 1013.48 1013.94 1014.31 1014.61 1015.09 1015.54 1016.28 1016.67 1016.95 1016.84 1016.94 1016.95 1017.29 1017.58 1017.65 1017.77 1017.88 1018.08 1018.19 1018.29 1018.52 1018.52 1018.57 1018.61 1018.38 1018.22 1018.23 1018.05 1018.16 1017.47 1017.15 1016.95 1017.17 1017.43 1017.21 1016.88 1017.21 1016.53
1010.83 1011.38 1012.18 1012.77 1013.21 1013.88 1014.28 1014.56 1015.03 1015.55 1015.70 1015.97 1016.21 1016.57 1016.83 1016.85 1016.82 1017.08 1017.41 1017.54 1017.69 1017.82 1017.93 1017.93 1017.96 1017.99 1018.36 1018.53 1018.39 1018.27 1018.20 1018.33 1017.97 1017.28 1016.84 1016.64 1016.65 1017.00 1017.14 1016.85 1016.95 1016.59 1016.40
1011.49 1011.89 1012.34 1012.81 1013.48 1014.06 1014.46 1014.59 1015.03 1015.25 1015.52 1015.73 1016.13 1016.37 1016.50 1016.27 1016.40 1017.09 1017.12 1017.11 1017.25 1017.42 1017.41 1017.48 1017.49 1017.84 1018.24 1018.50 1018.67 1018.90 1019.02 1018.84 1018.46 1017.96 1017.28 1016.83 1016.95 1017.16 1016.99 1017.12 1017.25 1017.13 1016.76
1011.69 1011.99 1012.37 1012.65 1013.10 1013.78 1014.15 1014.48 1015.00 1014.95 1015.30 1015.70 1015.72 1015.87 1016.04 1016.17 1016.68 1016.97 1017.17 1016.92 1016.85 1016.80 1016.85 1017.06 1017.08 1016.74 1017.49 1017.84 1018.35 1018.66 1018.69 1018.58 1018.62 1018.65 1018.18 1017.82 1017.81 1017.41 1017.52 1017.50 1017.55 1017.62 1017.22
1011.38 1012.12 1012.45 1012.88 1013.00 1013.23 1014.01 1014.43 1014.60 1014.86 1015.04 1015.24 1015.52 1015.67 1015.82 1015.99 1016.58 1016.92 1017.20 1017.24 1016.77 1016.67 1016.60 1016.70 1016.89 1016.91 1017.12 1017.35 1017.65 1017.70 1017.46 1017.33 1017.74 1017.93 1017.77 1017.73 1017.68 1017.57 1017.52 1017.44 1017.60 1017.42 1017.03
1011.53 1012.29 1012.38 1012.99 1013.07 1013.44 1013.70 1014.36 1014.46 1014.35 1014.56 1014.85 1015.11 1015.39 1015.44 1015.71 1016.41 1016.94 1017.45 1017.10 1016.55 1016.38 1016.20 1016.21 1016.37 1016.57 1016.91 1017.28 1017.46 1017.33 1017.14 1016.82 1016.27 1016.78 1016.90 1016.97 1017.07 1017.20 1017.44 1017.49 1017.09 1016.87 1016.09
1011.28 1011.82 1012.20 1012.43 1012.81 1013.34 1013.77 1014.07 1013.92 1013.97 1014.11 1014.26 1014.64 1014.91 1015.26 1015.46 1016.18 1016.68 1017.20 1016.48 1015.81 1015.51 1015.30 1015.56 1016.06 1016.47 1016.64 1016.94 1017.17 1017.16 1017.04 1016.62 1016.20 1015.92 1016.43 1016.46 1016.54 1016.31 1016.58 1016.90 1016.69 1016.51 1015.81
1011.32 1011.80 1011.81 1012.34 1012.70 1012.92 1013.24 1013.60 1013.79 1013.87 1013.85 1014.32 1014.29 1014.53 1014.77 1015.24 1015.62 1016.10 1016.42 1016.28 1015.47 1014.85 1014.71 1014.51 1014.87 1015.33 1015.92 1016.50 1016.88 1016.77 1016.39 1016.20 1015.95 1015.86 1015.64 1015.27 1014.96 1014.94 1015.09 1015.32 1015.66 1015.92 1015.27
1010.67 1011.08 1011.38 1011.84 1012.06 1012.64 1013.18 1013.45 1013.53 1013.62 1013.65 1013.87 1014.07 1014.12 1014.04 1014.41 1014.85 1015.52 1015.72 1015.95 1015.73 1015.41 1014.82 1014.48 1014.35 1014.47 1015.29 1015.77 1016.20 1016.24 1016.18 1016.27 1016.04 1015.35 1014.69 1014.14 1013.88 1013.54 1013.79 1014.12 1014.50 1014.82 1014.27
1010.56 1010.92 1011.28 1011.67 1011.79 1012.14 1012.64 1012.85 1013.01 1013.23 1013.07 1013.19 1012.92 1013.08 1012.75 1012.78 1013.70 1014.34 1014.93 1015.28 1015.46 1015.68 1015.13 1014.31 1014.87 1015.41 1015.44 1015.63 1015.62 1015.58 1015.71 1015.72 1015.20 1014.47 1013.83 1013.35 1013.09 1013.04 1013.33 1013.46 1013.45 1013.57 1013.92
1010.32 1010.72 1011.03 1011.29 1011.53 1011.63 1011.92 1012.00 1012.09 1011.83 1011.93 1012.15 1011.89 1011.90 1011.68 1011.82 1012.01 1012.63 1013.77 1014.40 1014.69 1015.04 1015.06 1014.87 1014.52 1014.49 1014.49 1014.43 1014.56 1014.66 1014.73 1014.34 1013.84 1013.48 1013.17 1012.99 1012.83 1012.77 1012.94 1013.10 1013.04 1012.95 1013.19
1009.95 1010.19 1010.46 1010.65 1011.09 1011.05 1011.24 1010.83 1010.92 1010.99 1011.02 1011.40 1011.65 1011.26 1011.04 1011.17 1011.74 1012.05 1012.24 1012.81 1013.14 1013.49 1013.80 1013.77 1013.33 1013.00 1013.07 1012.74 1012.50 1012.49 1012.18 1012.52 1012.68 1012.70 1012.82 1012.73 1012.86 1013.11 1013.04 1012.81 1012.76 1012.96 1013.20
1009.34 1009.44 1009.32 1009.14 1009.53 1009.82 1009.83 1010.41 1010.71 1010.95 1011.33 1011.42 1011.50 1011.81 1011.52 1011.68 1012.22 1012.43 1012.79 1013.23 1013.71 1013.82 1013.57 1012.93 1012.20 1011.90 1011.62 1011.47 1011.25 1011.15 1010.93 1011.17 1011.42 1011.89 1012.12 1012.29 1012.47 1012.37 1012.14 1012.02 1012.07 1012.19 1011.98
1008.72 1008.46 1008.35 1008.60 1008.12 1008.44 1009.19 1009.73 1009.98 1010.24 1010.38 1010.83 1011.01 1011.15 1011.52 1011.83 1012.01 1012.72 1013.04 1013.12 1013.17 1013.34 1013.03 1012.38 1011.81 1011.25 1010.75 1010.50 1010.32 1010.19 1010.30 1010.38 1010.64 1010.97 1011.10 1011.35 1011.55 1011.61 1011.82 1011.98 1011.97 1011.95 1011.89
1008.41 1008.27 1007.92 1007.63 1007.94 1007.71 1008.10 1008.64 1009.18 1009.38 1009.34 1009.91 1010.17 1010.41 1010.62 1011.00 1011.43 1012.04 1012.82 1013.31 1013.16 1013.16 1012.37 1011.37 1010.65 1010.16 1009.83 1009.74 1009.39 1009.50 1009.63 1009.76 1010.05 1010.48 1010.87 1011.03 1011.21 1011.41 1011.56 1011.66 1011.69 1011.69 1011.65
1007.75 1007.71 1007.68 1007.67 1007.21 1007.18 1007.22 1007.33 1008.24 1008.72 1008.05 1008.23 1007.78 1008.92 1009.53 1010.00 1010.75 1011.59 1012.26 1011.96 1011.29 1010.67 1010.01 1009.67 1009.57 1009.24 1008.95 1008.37 1008.47 1008.70 1009.21 1009.43 1009.66 1009.87 1010.17 1010.44 1010.76 1011.01 1011.13 1011.15 1010.94 1011.17 1011.42
1007.08 1007.03 1006.91 1006.68 1006.87 1006.91 1006.92 1007.20 1007.25 1008.20 1008.84 1008.01 1008.40 1008.25 1007.92 1009.44 1010.22 1010.19 1010.14 1009.90 1009.67 1009.19 1008.65 1008.17 1007.82 1007.76 1007.94 1007.45 1007.80 1008.22 1008.61 1009.15 1009.49 1009.61 1009.85 1010.08 1010.19 1010.35 1010.16 1010.11 1010.11 1010.03 1010.36
1005.91 1005.76 1005.99 1006.02 1006.07 1005.76 1006.22 1006.71 1006.56 1006.77 1006.95 1007.18 1007.71 1008.07 1007.99 1007.83 1007.80 1007.65 1007.04 1007.09 1007.38 1007.13 1006.90 1006.71 1006.44 1006.30 1006.60 1006.54 1007.04 1007.50 1007.81 1008.16 1008.35 1008.52 1008.70 1008.83 1008.99 1009.11 1009.32 1009.40 1009.44 1009.64 1009.81
1003.59 1003.52 1003.75 1004.59 1004.88 1005.09 1005.39 1005.81 1005.84 1006.12 1005.98 1006.56 1006.93 1006.89 1007.14 1006.90 1006.10 1005.74 1005.49 1005.52 1005.55 1005.30 1005.08 1005.01 1004.93 1005.11 1005.34 1005.66 1006.10 1006.26 1006.54 1006.98 1007.32 1007.53 1007.64 1007.93 1008.09 1008.27 1008.46 1008.63 1008.87 1009.31 1009.62
1002.80 1002.85 1002.95 1003.05 1003.46 1004.00 1004.99 1004.78 1004.83 1004.81 1005.64 1005.70 1005.80 1005.60 1005.24 1004.69 1004.55 1004.32 1004.14 1004.07 1003.96 1003.60 1003.53 1003.37 1003.89 1003.87 1003.61 1004.03 1004.48 1005.05 1005.33 1005.74 1006.10 1006.41 1006.55 1006.84 1007.13 1007.39 1007.63 1007.96 1008.36 1008.96 1009.16
1002.38 1002.15 1002.14 1002.15 1002.23 1002.37 1002.60 1002.87 1003.21 1003.13 1003.08 1003.30 1002.78 1002.58 1002.52 1002.62 1002.68 1002.63 1002.61 1002.64 1003.01 1002.77 1003.14 1004.49 1003.77 1003.12 1002.97 1002.49 1003.13 1003.60 1003.93 1004.41 1004.98 1005.15 1005.46 1005.84 1006.17 1006.61 1007.36 1007.87 1008.25 1008.83 1009.29
1002.14 1001.97 1001.37 1001.02 1000.93 1000.80 1000.80 1000.76 1001.94 1001.97 1002.35 1003.12 1001.64 1001.34 1001.30 1001.38 1001.38 1001.47 1001.10 1001.20 1001.30 1001.23 1000.83 1001.66 1002.21 1001.47 1001.10 1001.16 1001.94 1002.29 1002.53 1003.19 1003.71 1004.03 1004.45 1005.13 1005.85 1006.63 1007.38 1007.90 1008.60 1009.21 1008.94
1000.93 1001.06 1000.81 1000.35 1000.49 1000.36 1000.09 999.83 999.90 1000.27 1000.35 1000.28 999.96 1000.08 1000.42 1000.57 1001.28 1000.34 1000.57 1001.06 1000.71 1000.78 1000.69 1000.01 999.60 999.45 999.44 1000.08 1000.64 1000.80 1001.57 1002.34 1002.66 1003.16 1003.89 1005.18 1006.24 1007.00 1007.95 1008.71 1009.24 1009.06 1008.63
Thickness
5765 5762 5747 5731 5734 5734 5727 5723 5721 5715 5711 5704 5704 5699 5699 5700 5700 5695 5693 5694 5696 5699 5702 5700 5700 5700 5700 5701 5697 5695 5695 5693 5688 5687 5687 5682 5679 5676 5679 5679 5675 5678 5679
5766 5757 5746 5740 5739 5730 5721 5721 5715 5710 5706 5704 5700 5696 5694 5693 5695 5694 5689 5689 5688 5690 5689 5689 5688 5689 5686 5686 5686 5683 5683 5680 5681 5675 5677 5675 5673 5674 5672 5673 5671 5678 5675
5760 5756 5745 5738 5733 5725 5717 5720 5716 5709 5705 5699 5696 5692 5689 5691 5693 5688 5687 5686 5685 5685 5683 5681 5680 5678 5677 5680 5677 5677 5676 5677 5672 5670 5671 5675 5674 5674 5672 5671 5670 5671 5669
5756 5750 5742 5732 5726 5720 5716 5713 5711 5706 5702 5695 5693 5688 5688 5688 5689 5686 5683 5682 5681 5680 5677 5675 5674 5671 5670 5669 5667 5667 5668 5666 5667 5664 5668 5671 5674 5674 5669 5667 5667 5667 5671
5744 5738 5730 5723 5719 5714 5708 5706 5703 5697 5693 5690 5686 5683 5682 5684 5685 5683 5679 5677 5674 5672 5670 5670 5670 5670 5665 5662 5663 5663 5663 5659 5662 5666 5668 5670 5668 5664 5660 5664 5661 5664 5665
5728 5726 5721 5717 5711 5704 5701 5699 5691 5689 5686 5683 5680 5680 5680 5684 5682 5677 5676 5675 5672 5669 5668 5668 5668 5664 5659 5657 5655 5653 5651 5651 5654 5657 5661 5663 5662 5660 5662 5658 5655 5654 5651
5719 5716 5713 5710 5706 5700 5696 5691 5682 5682 5681 5677 5679 5679 5679 5680 5675 5673 5670 5672 5671 5671 5670 5666 5665 5669 5663 5659 5652 5650 5649 5650 5648 5647 5650 5653 5654 5656 5655 5653 5651 5648 5649
5712 5705 5702 5698 5697 5695 5686 5682 5678 5677 5677 5676 5675 5676 5676 5676 5671 5668 5666 5665 5667 5667 5667 5665 5662 5663 5661 5658 5654 5653 5656 5656 5651 5652 5653 5652 5652 5653 5653 5652 5649 5650 5652
5697 5691 5691 5687 5685 5683 5682 5675 5675 5678 5677 5676 5675 5673 5674 5673 5666 5662 5657 5660 5663 5664 5665 5665 5663 5661 5657 5652 5651 5651 5653 5655 5660 5659 5656 5655 5655 5654 5652 5649 5647 5647 5650
5692 5687 5681 5681 5678 5677 5675 5672 5677 5679 5678 5678 5673 5672 5669 5669 5662 5658 5654 5661 5664 5666 5669 5666 5660 5657 5655 5652 5651 5649 5648 5652 5656 5659 5656 5655 5655 5655 5653 5648 5648 5643 5646
5686 5681 5679 5677 5675 5676 5675 5674 5673 5674 5674 5670 5670 5670 5669 5666 5664 5658 5655 5658 5663 5667 5666 5667 5666 5661 5656 5650 5648 5651 5653 5654 5655 5655 5657 5660 5661 5660 5656 5653 5650 5645 5646
5688 5685 5682 5679 5678 5675 5672 5671 5672 5671 5670 5668 5665 5666 5669 5667 5664 5657 5654 5651 5655 5655 5658 5663 5665 5663 5656 5652 5648 5649 5648 5646 5649 5653 5657 5661 5661 5663 5660 5656 5653 5649 5651
5684 5681 5679 5676 5677 5676 5672 5671 5670 5668 5669 5666 5669 5667 5671 5673 5666 5659 5652 5648 5646 5646 5652 5660 5653 5649 5648 5645 5645 5647 5644 5646 5649 5652 5656 5659 5662 5662 5657 5654 5653 5651 5647
5681 5678 5677 5675 5674 5675 5675 5674 5672 5674 5672 5670 5672 5671 5673 5673 5672 5669 5658 5651 5646 5645 5646 5647 5650 5650 5649 5650 5649 5647 5648 5651 5654 5655 5657 5658 5659 5657 5653 5651 5649 5649 5644
5679 5679 5677 5677 5673 5674 5674 5679 5678 5678 5677 5673 5670 5673 5671 5670 5668 5663 5663 5658 5656 5651 5647 5647 5650 5652 5651 5655 5658 5659 5661 5659 5656 5654 5652 5651 5648 5645 5644 5646 5644 5639 5632
5678 5679 5682 5684 5682 5680 5680 5674 5673 5670 5666 5665 5663 5659 5664 5660 5655 5654 5650 5643 5638 5637 5640 5643 5648 5652 5654 5655 5657 5658 5662 5660 5657 5653 5650 5647 5642 5642 5643 5643 5640 5635 5633
5678 5682 5684 5681 5687 5684 5675 5670 5665 5668 5665 5661 5659 5657 5651 5651 5646 5641 5637 5635 5633 5630 5635 5638 5642 5648 5653 5655 5657 5658 5656 5657 5656 5651 5649 5645 5642 5640 5634 5630 5627 5625 5622
5677 5675 5681 5684 5681 5683 5679 5673 5667 5663 5664 5662 5656 5654 5651 5647 5642 5636 5630 5623 5629 5625 5630 5637 5643 5650 5654 5653 5658 5657 5655 5654 5650 5646 5641 5638 5634 5629 5624 5621 5618 5615 5613
5677 5677 5677 5677 5681 5680 5679 5678 5667 5663 5668 5666 5671 5658 5651 5645 5636 5628 5621 5628 5633 5637 5642 5643 5645 5651 5657 5660 5659 5656 5650 5648 5645 5641 5637 5633 5627 5621 5617 5614 5614 5606 5600
5677 5675 5675 5679 5676 5675 5674 5670 5669 5656 5650 5660 5653 5657 5660 5643 5637 5638 5633 5633 5634 5638 5643 5648 5652 5653 5654 5658 5654 5650 5646 5640 5635 5632 5628 5623 5619 5615 5614 5611 5609 5604 5597
5679 5681 5677 5677 5675 5678 5673 5667 5668 5665 5659 5656 5650 5647 5648 5649 5650 5647 5636 5649 5644 5646 5649 5651 5655 5656 5653 5655 5650 5645 5641 5637 5634 5631 5627 5623 5618 5612 5608 5604 5601 5595 5588
5692 5691 5688 5680 5676 5673 5670 5668 5668 5663 5650 5644 5649 5654 5646 5651 5655 5658 5658 5655 5654 5658 5660 5661 5661 5659 5656 5652 5648 5645 5640 5634 5630 5626 5622 5616 5611 5605 5600 5594 5589 5582 5574
5690 5688 5686 5683 5680 5673 5664 5666 5668 5665 5655 5650 5647 5652 5650 5659 5660 5660 5660 5661 5663 5666 5666 5668 5659 5660 5664 5659 5652 5645 5640 5633 5629 5624 5618 5611 5604 5598 5592 5585 5576 5564 5557
5686 5686 5684 5683 5681 5679 5676 5673 5672 5664 5666 5661 5665 5667 5668 5667 5664 5665 5666 5665 5663 5659 5645 5637 5637 5650 5655 5661 5653 5646 5641 5634 5627 5620 5612 5605 5598 5590 5580 5571 5562 5549 5536
5680 5679 5682 5684 5683 5682 5681 5682 5672 5674 5660 5643 5670 5672 5672 5671 5669 5667 5671 5670 5665 5669 5674 5659 5649 5657 5664 5662 5653 5646 5638 5632 5624 5616 5608 5599 5589 5578 5565 5553 5538 5526 5522
5682 5679 5679 5682 5679 5678 5679 5680 5680 5676 5675 5676 5677 5675 5670 5667 5661 5670 5667 5662 5662 5663 5664 5669 5670 5671 5669 5661 5654 5646 5635 5624 5615 5607 5595 5580 5566 5555 5538 5524 5512 5508 5506